This is the latest recevied weather packets stored in our database for station/object OE-11190. If no packets are shown the sender has not sent any weather packets the latest 10 day(s).
| Time | Temp. | Humidity | Pressure | Rain* | Wind** | Luminosity | Snow |
|---|---|---|---|---|---|---|---|
| 1788163881 | 26.67° C | 47% | 1013.8 hPa | 0 mm | - | 553 W/m² | - |
| 1788163508 | 25.56° C | 49% | 1013.9 hPa | 0 mm | - | 500 W/m² | - |
| 1788162908 | 25.56° C | 50% | 1013.9 hPa | 0 mm | - | 516 W/m² | - |
| 1788161708 | 25° C | 61% | 1014 hPa | 0 mm | - | 455 W/m² | - |
| 1788161108 | 24.44° C | 61% | 1013.9 hPa | 0 mm | - | 425 W/m² | - |
| 1788160281 | 24.44° C | 62% | 1013.8 hPa | 0 mm | - | 402 W/m² | - |
| 1788159908 | 23.33° C | 64% | 1013.8 hPa | 0 mm | - | 372 W/m² | - |
| 1788159308 | 22.78° C | 65% | 1013.8 hPa | 0 mm | - | 341 W/m² | - |
| 1788158481 | 21.67° C | 68% | 1013.9 hPa | 0 mm | - | 318 W/m² | - |
| 1788158107 | 22.22° C | 67% | 1013.9 hPa | 0 mm | - | 288 W/m² | - |
| 1788157507 | 21.67° C | 67% | 1013.9 hPa | 0 mm | - | 258 W/m² | - |
| 1788156680 | 20.56° C | 72% | 1013.8 hPa | 0 mm | - | 235 W/m² | - |
| 1788156308 | 20° C | 74% | 1013.8 hPa | 0 mm | - | 205 W/m² | - |
| 1788155708 | 19.44° C | 75% | 1014 hPa | 0 mm | - | 182 W/m² | - |
| 1788154880 | 19.44° C | 77% | 1014.1 hPa | 0 mm | - | 114 W/m² | - |
| 1788154507 | 19.44° C | 78% | 1014.1 hPa | 0 mm | - | 45 W/m² | - |
| 1788153907 | 19.44° C | 76% | 1013.8 hPa | 0 mm | - | 45 W/m² | - |
| 1788153081 | 19.44° C | 75% | 1013.8 hPa | 0 mm | - | 61 W/m² | - |
| 1788152708 | 18.89° C | 77% | 1013.9 hPa | 0 mm | - | 61 W/m² | - |
| 1788152107 | 18.89° C | 78% | 1013.8 hPa | 0 mm | - | 45 W/m² | - |
| 1788151280 | 18.33° C | 80% | 1013.7 hPa | 0 mm | - | 23 W/m² | - |
| 1788150908 | 17.78° C | 80% | 1013.8 hPa | 0 mm | - | 8 W/m² | - |
| 1788150308 | 17.78° C | 81% | 1013.7 hPa | 0 mm | - | 0 W/m² | - |
| 1788149719 | 17.78° C | 80% | 1013.8 hPa | 0 mm | - | 0 W/m² | - |
| 1788149108 | 18.33° C | 80% | 1013.7 hPa | 0 mm | - | 0 W/m² | - |
* Rain latest hour (hover to see other rain measurements)
** Current wind speed in m/s (hover to see current wind gust speed)